Regional Weather Roundup
Issued by NWS

Home | Current Version | Previous Version | Graphics & Text | Print | Product List | Glossary On
Versions: 1 2 3 4 5 6 7 8 9 10 11 12 13 14 15 16 17 18 19 20 21 22 23 24 25 26 27 28 29 30 31 32 33 34 35 36 37 38 39 40 41 42 43 44 45 46 47 48 49 50
000
ASUS43 KFSD 231810
RWRSD

WEATHER ROUNDUP FOR SOUTH DAKOTA
NATIONAL WEATHER SERVICE SIOUX FALLS SD
100 PM CDT THU MAR 23 2017

NOTE: "FAIR" INDICATES FEW OR NO CLOUDS BELOW 12,000 FEET WITH NO
SIGNIFICANT WEATHER AND/OR OBSTRUCTIONS TO VISIBILITY.


SDZ001>005-009-010-012>017-231900-
NORTHWEST AND NORTH CENTRAL SOUTH DAKOTA

CITY           SKY/WX    TMP DP  RH WIND       PRES   REMARKS
BUFFALO          N/A     46  43  89 NW7       29.70R
MOBRIDGE       SUNNY     55  35  47 S12       29.65F
$$

SDZ012>016-024>037-041>051-057-063-072>074-231900-
SOUTHWEST AND SOUTH CENTRAL SOUTH DAKOTA

CITY           SKY/WX    TMP DP  RH WIND       PRES   REMARKS
RAPID CTY ARPT SUNNY     59  41  51 N13       29.63F
PIERRE         SUNNY     57  38  48 VRB7      29.64F
CUSTER         MOSUNNY   60  36  40 MISG      29.66F
ELLSWORTH AFB  SUNNY     58  42  55 N14       29.63F
PHILIP         SUNNY     59  39  47 N3        29.61F
PINE RIDGE     SUNNY     62  41  46 NW5       29.61F
SPEARFISH      FAIR      50  45  81 NW9G16    29.70R
WINNER         CLOUDY    56  45  66 S20G26    29.65F
$$

SDZ004>011-016>023-039-040-231900-
NORTHEAST SOUTH DAKOTA

CITY           SKY/WX    TMP DP  RH WIND       PRES   REMARKS
ABERDEEN       CLOUDY    43  30  60 S12       29.76S
WATERTOWN      CLOUDY    37  31  78 SE13G24   29.77F HAZE
BROOKINGS      LGT RAIN  40  29  64 S18G25    29.80F
SISSETON         N/A     41  30  65 S13       29.80F
$$

SDZ017-020-022-023-036>040-048>070-231900-
SOUTHEAST SOUTH DAKOTA

CITY           SKY/WX    TMP DP  RH WIND       PRES   REMARKS
SIOUX FALLS    LGT RAIN  42  39  89 SE10      29.80F FOG
HURON          CLOUDY    45  33  63 S13G22    29.74F
CHAMBERLAIN    CLOUDY    54  43  65 SE15G21   29.67F
MITCHELL       CLOUDY    46  35  65 S18       29.74F
YANKTON        CLOUDY    48  43  81 SE13      29.74F
$$

ABBREVIATIONS USED IN REMARKS
   TC - TEMPERATURE IN CELSIUS
  WCI - WIND CHILL INDEX
   HX - HEAT INDEX
  VSB - VISIBILITY




USA.gov is the U.S. government's official web portal to all federal, state and local government web resources and services.